Time,TemperatureF,DewpointF,PressureIn,WindDirection,WindDirectionDegrees,WindSpeedMPH,WindSpeedGustMPH,Humidity,HourlyPrecipIn,Conditions,Clouds,dailyrainin,SoftwareType,DateUTC
2013-10-11 00:00:00,48.8,45.4,30.17,East,82,0.0,0.0,88,0.00,,,0.00,Wunderground v.1.15,2013-10-11 04:00:00,
2013-10-11 00:09:00,48.8,45.4,30.17,East,82,0.0,0.0,88,0.00,,,0.00,Wunderground v.1.15,2013-10-11 04:09:00,
2013-10-11 00:20:00,49.1,45.4,30.17,East,82,0.0,0.0,87,0.00,,,0.00,Wunderground v.1.15,2013-10-11 04:20:00,
2013-10-11 00:30:00,48.8,45.4,30.16,East,82,0.0,0.0,88,0.00,,,0.00,Wunderground v.1.15,2013-10-11 04:30:00,
2013-10-11 00:40:00,48.8,44.8,30.16,East,82,0.0,0.0,86,0.00,,,0.00,Wunderground v.1.15,2013-10-11 04:40:00,
2013-10-11 00:50:00,48.5,44.5,30.17,East,82,0.0,0.0,86,0.00,,,0.00,Wunderground v.1.15,2013-10-11 04:50:00,
2013-10-11 01:00:00,48.3,43.4,30.16,East,82,0.0,0.0,83,0.00,,,0.00,Wunderground v.1.15,2013-10-11 05:00:00,
2013-10-11 01:10:00,48.2,43.6,30.16,East,82,0.0,3.0,84,0.00,,,0.00,Wunderground v.1.15,2013-10-11 05:10:00,
2013-10-11 01:20:00,48.0,44.0,30.16,East,82,0.0,3.0,86,0.00,,,0.00,Wunderground v.1.15,2013-10-11 05:20:00,
2013-10-11 01:30:00,48.5,44.8,30.16,East,82,0.0,3.0,87,0.00,,,0.00,Wunderground v.1.15,2013-10-11 05:30:00,
2013-10-11 01:39:00,49.2,44.3,30.16,East,82,0.0,3.0,83,0.00,,,0.00,Wunderground v.1.15,2013-10-11 05:39:00,
2013-10-11 01:50:00,48.9,44.9,30.16,East,82,0.0,3.0,86,0.00,,,0.00,Wunderground v.1.15,2013-10-11 05:50:00,
2013-10-11 02:00:00,48.3,44.6,30.16,East,82,0.0,3.0,87,0.00,,,0.00,Wunderground v.1.15,2013-10-11 06:00:00,
2013-10-11 02:10:00,48.0,44.0,30.16,East,82,0.0,3.0,86,0.00,,,0.00,Wunderground v.1.15,2013-10-11 06:10:00,
2013-10-11 02:20:00,47.9,43.3,30.15,East,82,0.0,3.0,84,0.00,,,0.00,Wunderground v.1.15,2013-10-11 06:20:00,
2013-10-11 02:30:00,47.9,43.6,30.15,East,82,0.0,3.0,85,0.00,,,0.00,Wunderground v.1.15,2013-10-11 06:30:00,
2013-10-11 02:40:00,47.9,43.6,30.15,East,82,0.0,3.0,85,0.00,,,0.00,Wunderground v.1.15,2013-10-11 06:40:00,
2013-10-11 02:50:00,48.0,43.4,30.14,East,82,0.0,3.0,84,0.00,,,0.00,Wunderground v.1.15,2013-10-11 06:50:00,
2013-10-11 03:00:00,48.2,43.6,30.14,East,82,0.0,3.0,84,0.00,,,0.00,Wunderground v.1.15,2013-10-11 07:00:00,
2013-10-11 03:10:00,48.0,43.7,30.14,East,82,0.0,3.0,85,0.00,,,0.00,Wunderground v.1.15,2013-10-11 07:10:00,
2013-10-11 03:20:00,48.3,43.7,30.14,East,82,0.0,3.0,84,0.00,,,0.00,Wunderground v.1.15,2013-10-11 07:20:00,
2013-10-11 03:30:00,47.9,43.6,30.14,East,82,0.0,3.0,85,0.00,,,0.00,Wunderground v.1.15,2013-10-11 07:30:00,
2013-10-11 03:40:00,47.4,43.4,30.14,East,82,0.0,3.0,86,0.00,,,0.00,Wunderground v.1.15,2013-10-11 07:40:00,
2013-10-11 03:50:00,47.6,44.5,30.13,East,82,0.0,3.0,89,0.00,,,0.00,Wunderground v.1.15,2013-10-11 07:50:00,
2013-10-11 04:00:00,47.6,43.9,30.13,East,82,0.0,3.0,87,0.00,,,0.00,Wunderground v.1.15,2013-10-11 08:00:00,
2013-10-11 04:10:00,47.6,43.9,30.13,East,82,0.0,3.0,87,0.00,,,0.00,Wunderground v.1.15,2013-10-11 08:10:00,
2013-10-11 04:20:00,47.7,43.1,30.14,East,82,0.0,3.0,84,0.00,,,0.00,Wunderground v.1.15,2013-10-11 08:20:00,
2013-10-11 04:30:00,47.4,43.4,30.14,East,82,0.0,3.0,86,0.00,,,0.00,Wunderground v.1.15,2013-10-11 08:30:00,
2013-10-11 04:40:00,47.0,43.6,30.14,East,82,0.0,3.0,88,0.00,,,0.00,Wunderground v.1.15,2013-10-11 08:40:00,
2013-10-11 04:50:00,46.8,43.4,30.14,East,82,0.0,3.0,88,0.00,,,0.00,Wunderground v.1.15,2013-10-11 08:50:00,
2013-10-11 05:00:00,47.1,43.4,30.15,East,82,0.0,3.0,87,0.00,,,0.00,Wunderground v.1.15,2013-10-11 09:00:00,
2013-10-11 05:10:00,47.0,43.6,30.15,East,82,0.0,3.0,88,0.00,,,0.00,Wunderground v.1.15,2013-10-11 09:10:00,
2013-10-11 05:20:00,47.1,43.7,30.15,East,82,0.0,3.0,88,0.00,,,0.00,Wunderground v.1.15,2013-10-11 09:20:00,
2013-10-11 05:30:00,47.0,43.9,30.15,East,82,0.0,3.0,89,0.00,,,0.00,Wunderground v.1.15,2013-10-11 09:30:00,
2013-10-11 05:39:00,46.8,43.7,30.15,East,82,0.0,3.0,89,0.00,,,0.00,Wunderground v.1.15,2013-10-11 09:39:00,
2013-10-11 05:50:00,47.1,44.0,30.15,East,82,0.0,3.0,89,0.00,,,0.00,Wunderground v.1.15,2013-10-11 09:50:00,
2013-10-11 06:00:00,46.8,44.0,30.15,East,82,0.0,3.0,90,0.00,,,0.00,Wunderground v.1.15,2013-10-11 10:00:00,
2013-10-11 06:10:00,46.5,43.4,30.15,East,82,0.0,0.0,89,0.00,,,0.00,Wunderground v.1.15,2013-10-11 10:10:00,
2013-10-11 06:20:00,46.5,43.7,30.15,East,82,0.0,0.0,90,0.00,,,0.00,Wunderground v.1.15,2013-10-11 10:20:00,
2013-10-11 06:30:00,46.4,43.6,30.15,East,82,0.0,0.0,90,0.00,,,0.00,Wunderground v.1.15,2013-10-11 10:30:00,
2013-10-11 06:40:00,46.2,43.4,30.15,East,82,0.0,0.0,90,0.00,,,0.00,Wunderground v.1.15,2013-10-11 10:40:00,
2013-10-11 06:50:00,46.1,43.6,30.15,East,82,0.0,0.0,91,0.00,,,0.00,Wunderground v.1.15,2013-10-11 10:50:00,
2013-10-11 06:59:00,46.1,43.9,30.15,East,82,0.0,0.0,92,0.00,,,0.00,Wunderground v.1.15,2013-10-11 10:59:00,
2013-10-11 07:10:00,46.1,43.9,30.15,East,82,0.0,0.0,92,0.00,,,0.00,Wunderground v.1.15,2013-10-11 11:10:00,
2013-10-11 07:20:00,46.0,43.8,30.15,East,82,0.0,0.0,92,0.00,,,0.00,Wunderground v.1.15,2013-10-11 11:20:00,
2013-10-11 07:30:00,46.1,43.9,30.16,East,82,0.0,0.0,92,0.00,,,0.00,Wunderground v.1.15,2013-10-11 11:30:00,
2013-10-11 07:39:00,46.5,44.0,30.16,East,82,0.0,0.0,91,0.00,,,0.00,Wunderground v.1.15,2013-10-11 11:39:00,
2013-10-11 07:50:00,46.8,43.7,30.16,East,82,0.0,0.0,89,0.00,,,0.00,Wunderground v.1.15,2013-10-11 11:50:00,
2013-10-11 08:00:00,47.1,43.7,30.16,East,82,0.0,0.0,88,0.00,,,0.00,Wunderground v.1.15,2013-10-11 12:00:00,
2013-10-11 08:10:00,47.6,44.2,30.16,East,82,0.0,0.0,88,0.00,,,0.00,Wunderground v.1.15,2013-10-11 12:10:00,
2013-10-11 08:20:00,47.9,45.1,30.16,East,82,0.0,0.0,90,0.00,,,0.00,Wunderground v.1.15,2013-10-11 12:20:00,
2013-10-11 08:30:00,48.0,45.5,30.16,East,82,0.0,0.0,91,0.00,,,0.00,Wunderground v.1.15,2013-10-11 12:30:00,
2013-10-11 08:40:00,48.0,44.6,30.16,East,82,0.0,0.0,88,0.00,,,0.00,Wunderground v.1.15,2013-10-11 12:40:00,
2013-10-11 08:50:00,48.5,45.4,30.17,East,82,0.0,0.0,89,0.00,,,0.00,Wunderground v.1.15,2013-10-11 12:50:00,
2013-10-11 09:00:00,49.1,45.4,30.17,East,82,0.0,0.0,87,0.00,,,0.00,Wunderground v.1.15,2013-10-11 13:00:00,
2013-10-11 09:10:00,49.8,45.8,30.17,East,82,0.0,0.0,86,0.00,,,0.00,Wunderground v.1.15,2013-10-11 13:10:00,
2013-10-11 09:20:00,50.1,44.5,30.17,East,82,0.0,0.0,81,0.00,,,0.00,Wunderground v.1.15,2013-10-11 13:20:00,
2013-10-11 09:30:00,50.5,44.9,30.17,WNW,293,0.0,2.0,81,0.00,,,0.00,Wunderground v.1.15,2013-10-11 13:30:00,
2013-10-11 09:40:00,51.4,45.1,30.17,West,281,1.0,1.0,79,0.00,,,0.00,Wunderground v.1.15,2013-10-11 13:40:00,
2013-10-11 09:50:00,52.3,46.0,30.17,West,281,0.0,0.0,79,0.00,,,0.00,Wunderground v.1.15,2013-10-11 13:50:00,
2013-10-11 10:00:00,53.3,47.0,30.17,West,281,0.0,0.0,79,0.00,,,0.00,Wunderground v.1.15,2013-10-11 14:00:00,
2013-10-11 10:10:00,54.2,45.7,30.17,West,281,0.0,0.0,73,0.00,,,0.00,Wunderground v.1.15,2013-10-11 14:10:00,
2013-10-11 10:20:00,55.1,45.1,30.17,West,267,0.0,3.0,69,0.00,,,0.00,Wunderground v.1.15,2013-10-11 14:20:00,
2013-10-11 10:29:00,55.7,46.1,30.17,WSW,258,1.0,1.0,70,0.00,,,0.00,Wunderground v.1.15,2013-10-11 14:29:00,
2013-10-11 10:40:00,56.5,47.2,30.17,WSW,258,0.0,2.0,71,0.00,,,0.00,Wunderground v.1.15,2013-10-11 14:40:00,
2013-10-11 10:50:00,57.6,46.3,30.17,WSW,258,0.0,0.0,66,0.00,,,0.00,Wunderground v.1.15,2013-10-11 14:50:00,
2013-10-11 11:00:00,58.6,48.5,30.17,WSW,244,0.0,0.0,69,0.00,,,0.00,Wunderground v.1.15,2013-10-11 15:00:00,
2013-10-11 11:10:00,59.3,47.5,30.17,SW,222,0.0,0.0,65,0.00,,,0.00,Wunderground v.1.15,2013-10-11 15:10:00,
2013-10-11 11:20:00,60.4,46.0,30.16,WSW,255,0.0,0.0,59,0.00,,,0.00,Wunderground v.1.15,2013-10-11 15:20:00,
2013-10-11 11:30:00,61.3,47.3,30.16,WSW,254,0.0,0.0,60,0.00,,,0.00,Wunderground v.1.15,2013-10-11 15:30:00,
2013-10-11 11:40:00,62.0,47.5,30.16,West,272,0.0,0.0,59,0.00,,,0.00,Wunderground v.1.15,2013-10-11 15:40:00,
2013-10-11 11:49:00,62.7,47.7,30.16,West,260,0.0,0.0,58,0.00,,,0.00,Wunderground v.1.15,2013-10-11 15:49:00,
2013-10-11 12:00:00,62.9,47.9,30.15,West,281,1.0,1.0,58,0.00,,,0.00,Wunderground v.1.15,2013-10-11 16:00:00,
2013-10-11 12:10:00,63.2,48.6,30.15,WSW,246,0.0,0.0,59,0.00,,,0.00,Wunderground v.1.15,2013-10-11 16:10:00,
2013-10-11 12:20:00,63.2,48.2,30.14,West,268,1.0,1.0,58,0.00,,,0.00,Wunderground v.1.15,2013-10-11 16:20:00,
2013-10-11 12:30:00,63.4,47.9,30.14,West,272,1.0,2.0,57,0.00,,,0.00,Wunderground v.1.15,2013-10-11 16:30:00,
2013-10-11 12:40:00,63.7,49.1,30.14,West,263,2.0,7.0,59,0.00,,,0.00,Wunderground v.1.15,2013-10-11 16:40:00,
2013-10-11 12:50:00,64.2,47.7,30.14,NW,306,2.0,2.0,55,0.00,,,0.00,Wunderground v.1.15,2013-10-11 16:50:00,
2013-10-11 13:00:00,64.8,49.7,30.13,WNW,294,1.0,1.0,58,0.00,,,0.00,Wunderground v.1.15,2013-10-11 17:00:00,
2013-10-11 13:10:00,65.2,49.1,30.13,West,279,2.0,2.0,56,0.00,,,0.00,Wunderground v.1.15,2013-10-11 17:10:00,
2013-10-11 13:20:00,65.5,48.4,30.13,WNW,289,1.0,5.0,54,0.00,,,0.00,Wunderground v.1.15,2013-10-11 17:20:00,
2013-10-11 13:30:00,66.1,49.9,30.12,West,271,1.0,1.0,56,0.00,,,0.00,Wunderground v.1.15,2013-10-11 17:30:00,
2013-10-11 13:40:00,66.0,47.3,30.12,NW,304,2.0,6.0,51,0.00,,,0.00,Wunderground v.1.15,2013-10-11 17:40:00,
2013-10-11 13:50:00,65.3,48.2,30.12,WNW,292,3.0,3.0,54,0.00,,,0.00,Wunderground v.1.15,2013-10-11 17:50:00,
2013-10-11 14:00:00,66.0,49.8,30.13,WNW,299,1.0,1.0,56,0.00,,,0.00,Wunderground v.1.15,2013-10-11 18:00:00,
2013-10-11 14:10:00,66.4,47.7,30.13,WNW,287,2.0,2.0,51,0.00,,,0.00,Wunderground v.1.15,2013-10-11 18:10:00,
2013-10-11 14:20:00,67.1,48.4,30.12,NW,321,2.0,5.0,51,0.00,,,0.00,Wunderground v.1.15,2013-10-11 18:20:00,
2013-10-11 14:29:00,67.1,47.3,30.13,NW,318,2.0,2.0,49,0.00,,,0.00,Wunderground v.1.15,2013-10-11 18:29:00,
2013-10-11 14:40:00,66.8,48.6,30.13,WNW,289,3.0,3.0,52,0.00,,,0.00,Wunderground v.1.15,2013-10-11 18:40:00,
2013-10-11 14:50:00,67.4,48.1,30.12,WNW,282,2.0,2.0,50,0.00,,,0.00,Wunderground v.1.15,2013-10-11 18:50:00,
2013-10-11 15:00:00,67.4,49.2,30.12,NNW,337,2.0,5.0,52,0.00,,,0.00,Wunderground v.1.15,2013-10-11 19:00:00,
2013-10-11 15:10:00,67.4,48.6,30.12,West,281,2.0,5.0,51,0.00,,,0.00,Wunderground v.1.15,2013-10-11 19:10:00,
2013-10-11 15:20:00,67.8,51.0,30.11,West,276,1.0,5.0,55,0.00,,,0.00,Wunderground v.1.15,2013-10-11 19:20:00,
2013-10-11 15:30:00,68.1,49.3,30.11,West,260,1.0,1.0,51,0.00,,,0.00,Wunderground v.1.15,2013-10-11 19:30:00,
2013-10-11 15:40:00,67.9,50.6,30.11,West,279,2.0,2.0,54,0.00,,,0.00,Wunderground v.1.15,2013-10-11 19:40:00,
2013-10-11 15:49:00,67.9,50.6,30.11,West,279,1.0,1.0,54,0.00,,,0.00,Wunderground v.1.15,2013-10-11 19:49:00,
2013-10-11 16:00:00,67.6,51.3,30.11,West,267,2.0,2.0,56,0.00,,,0.00,Wunderground v.1.15,2013-10-11 20:00:00,
2013-10-11 16:10:00,67.3,50.6,30.11,WNW,299,1.0,1.0,55,0.00,,,0.00,Wunderground v.1.15,2013-10-11 20:10:00,
2013-10-11 16:20:00,66.8,50.6,30.11,WNW,283,1.0,5.0,56,0.00,,,0.00,Wunderground v.1.15,2013-10-11 20:20:00,
2013-10-11 16:30:00,66.3,51.1,30.11,WNW,282,2.0,5.0,58,0.00,,,0.00,Wunderground v.1.15,2013-10-11 20:30:00,
2013-10-11 16:40:00,66.0,50.8,30.11,WNW,295,2.0,2.0,58,0.00,,,0.00,Wunderground v.1.15,2013-10-11 20:40:00,
2013-10-11 16:50:00,65.5,50.3,30.12,WNW,291,2.0,2.0,58,0.00,,,0.00,Wunderground v.1.15,2013-10-11 20:50:00,
2013-10-11 17:00:00,64.7,49.6,30.12,NW,316,2.0,2.0,58,0.00,,,0.00,Wunderground v.1.15,2013-10-11 21:00:00,
2013-10-11 17:10:00,64.3,51.0,30.12,WNW,295,1.0,1.0,62,0.00,,,0.00,Wunderground v.1.15,2013-10-11 21:10:00,
2013-10-11 17:20:00,63.9,51.5,30.12,WNW,295,0.0,5.0,64,0.00,,,0.00,Wunderground v.1.15,2013-10-11 21:20:00,
2013-10-11 17:30:00,63.1,51.6,30.12,WNW,295,0.0,5.0,66,0.00,,,0.00,Wunderground v.1.15,2013-10-11 21:30:00,
2013-10-11 17:40:00,62.1,51.8,30.12,NW,305,0.0,5.0,69,0.00,,,0.00,Wunderground v.1.15,2013-10-11 21:40:00,
2013-10-11 17:50:00,61.6,51.3,30.12,NW,305,0.0,5.0,69,0.00,,,0.00,Wunderground v.1.15,2013-10-11 21:50:00,
2013-10-11 18:00:00,60.7,51.2,30.12,NW,305,0.0,5.0,71,0.00,,,0.00,Wunderground v.1.15,2013-10-11 22:00:00,
2013-10-11 18:10:00,59.5,50.8,30.12,NW,305,0.0,0.0,73,0.00,,,0.00,Wunderground v.1.15,2013-10-11 22:10:00,
2013-10-11 18:20:00,59.0,50.7,30.12,NW,305,0.0,0.0,74,0.00,,,0.00,Wunderground v.1.15,2013-10-11 22:20:00,
2013-10-11 18:30:00,58.3,48.2,30.12,North,7,0.0,0.0,69,0.00,,,0.00,Wunderground v.1.15,2013-10-11 22:30:00,
2013-10-11 18:40:00,57.8,48.5,30.12,North,7,0.0,0.0,71,0.00,,,0.00,Wunderground v.1.15,2013-10-11 22:40:00,
2013-10-11 18:50:00,57.2,48.6,30.13,North,7,0.0,0.0,73,0.00,,,0.00,Wunderground v.1.15,2013-10-11 22:50:00,
2013-10-11 18:59:00,56.7,48.5,30.13,North,6,0.0,0.0,74,0.00,,,0.00,Wunderground v.1.15,2013-10-11 22:59:00,
2013-10-11 19:10:00,57.0,49.5,30.13,North,1,0.0,2.0,76,0.00,,,0.00,Wunderground v.1.15,2013-10-11 23:10:00,
2013-10-11 19:20:00,56.3,49.5,30.13,North,1,0.0,2.0,78,0.00,,,0.00,Wunderground v.1.15,2013-10-11 23:20:00,
2013-10-11 19:30:00,55.7,48.9,30.14,North,1,0.0,2.0,78,0.00,,,0.00,Wunderground v.1.15,2013-10-11 23:30:00,
2013-10-11 19:40:00,55.4,49.0,30.14,North,1,0.0,2.0,79,0.00,,,0.00,Wunderground v.1.15,2013-10-11 23:40:00,
2013-10-11 19:50:00,55.0,48.3,30.14,North,1,0.0,2.0,78,0.00,,,0.00,Wunderground v.1.15,2013-10-11 23:50:00,
2013-10-11 20:00:00,54.2,48.2,30.14,North,1,0.0,2.0,80,0.00,,,0.00,Wunderground v.1.15,2013-10-12 00:00:00,
2013-10-11 20:10:00,53.8,47.4,30.14,North,1,0.0,2.0,79,0.00,,,0.00,Wunderground v.1.15,2013-10-12 00:10:00,
2013-10-11 20:20:00,53.6,46.9,30.15,North,1,0.0,2.0,78,0.00,,,0.00,Wunderground v.1.15,2013-10-12 00:20:00,
2013-10-11 20:30:00,53.8,47.4,30.15,North,1,0.0,2.0,79,0.00,,,0.00,Wunderground v.1.15,2013-10-12 00:30:00,
2013-10-11 20:40:00,53.5,46.8,30.15,North,1,0.0,2.0,78,0.00,,,0.00,Wunderground v.1.15,2013-10-12 00:40:00,
2013-10-11 20:50:00,52.6,46.9,30.15,North,1,0.0,2.0,81,0.00,,,0.00,Wunderground v.1.15,2013-10-12 00:50:00,
2013-10-11 21:00:00,52.0,45.7,30.16,North,1,0.0,2.0,79,0.00,,,0.00,Wunderground v.1.15,2013-10-12 01:00:00,
2013-10-11 21:10:00,51.3,45.7,30.16,North,1,0.0,2.0,81,0.00,,,0.00,Wunderground v.1.15,2013-10-12 01:10:00,
2013-10-11 21:20:00,50.8,45.5,30.16,North,1,0.0,2.0,82,0.00,,,0.00,Wunderground v.1.15,2013-10-12 01:20:00,
2013-10-11 21:30:00,50.8,45.8,30.17,North,1,0.0,2.0,83,0.00,,,0.00,Wunderground v.1.15,2013-10-12 01:30:00,
2013-10-11 21:40:00,50.8,45.8,30.17,North,1,0.0,2.0,83,0.00,,,0.00,Wunderground v.1.15,2013-10-12 01:40:00,
2013-10-11 21:50:00,51.0,45.7,30.17,North,1,0.0,2.0,82,0.00,,,0.00,Wunderground v.1.15,2013-10-12 01:50:00,
2013-10-11 22:00:00,50.2,45.9,30.17,North,1,0.0,2.0,85,0.00,,,0.00,Wunderground v.1.15,2013-10-12 02:00:00,
2013-10-11 22:10:00,49.8,45.5,30.17,North,1,0.0,2.0,85,0.00,,,0.00,Wunderground v.1.15,2013-10-12 02:10:00,
2013-10-11 22:20:00,48.9,45.2,30.17,North,1,0.0,2.0,87,0.00,,,0.00,Wunderground v.1.15,2013-10-12 02:20:00,
2013-10-11 22:30:00,48.2,44.8,30.17,North,1,0.0,2.0,88,0.00,,,0.00,Wunderground v.1.15,2013-10-12 02:30:00,
2013-10-11 22:40:00,48.0,44.9,30.17,North,1,0.0,2.0,89,0.00,,,0.00,Wunderground v.1.15,2013-10-12 02:40:00,
2013-10-11 22:50:00,48.0,44.9,30.17,North,1,0.0,2.0,89,0.00,,,0.00,Wunderground v.1.15,2013-10-12 02:50:00,
2013-10-11 23:00:00,47.7,44.6,30.17,North,1,0.0,2.0,89,0.00,,,0.00,Wunderground v.1.15,2013-10-12 03:00:00,
2013-10-11 23:10:00,47.6,44.5,30.17,North,1,0.0,2.0,89,0.00,,,0.00,Wunderground v.1.15,2013-10-12 03:10:00,
2013-10-11 23:20:00,48.5,45.7,30.17,North,1,0.0,2.0,90,0.00,,,0.00,Wunderground v.1.15,2013-10-12 03:20:00,
2013-10-11 23:30:00,47.9,44.8,30.17,North,1,0.0,2.0,89,0.00,,,0.00,Wunderground v.1.15,2013-10-12 03:30:00,
2013-10-11 23:40:00,47.1,44.6,30.17,North,1,0.0,2.0,91,0.00,,,0.00,Wunderground v.1.15,2013-10-12 03:40:00,
2013-10-11 23:50:00,46.7,44.5,30.17,North,1,0.0,2.0,92,0.00,,,0.00,Wunderground v.1.15,2013-10-12 03:50:00,